owner,sensor,date,latitude,longitude,vertical_datum,sea_water_practical_salinity,qcFlag 
TABS,ioos:station:wmo:42050:1,2013-02-01T00:00:00Z,28.8425,-94.2433,2.0,35.7308,11111222 
TABS,ioos:station:wmo:42050:1,2013-02-01T00:30:00Z,28.8425,-94.2433,2.0,35.7332,11111222 
TABS,ioos:station:wmo:42050:1,2013-02-01T01:00:00Z,28.8425,-94.2433,2.0,35.7293,11111222 
TABS,ioos:station:wmo:42050:1,2013-02-01T01:30:00Z,28.8425,-94.2433,2.0,35.73,11111222 
TABS,ioos:station:wmo:42050:1,2013-02-01T02:00:00Z,28.8425,-94.2433,2.0,35.7373,11111222 
TABS,ioos:station:wmo:42050:1,2013-02-01T02:30:00Z,28.8425,-94.2433,2.0,35.7373,11111222 
TABS,ioos:station:wmo:42050:1,2013-02-01T03:00:00Z,28.8425,-94.2433,2.0,35.7383,11111222 
TABS,ioos:station:wmo:42050:1,2013-02-01T03:30:00Z,28.8425,-94.2433,2.0,35.7529,11111222 
TABS,ioos:station:wmo:42050:1,2013-02-01T04:00:00Z,28.8425,-94.2433,2.0,35.7483,11111222 
TABS,ioos:station:wmo:42050:1,2013-02-01T04:30:00Z,28.8425,-94.2433,2.0,35.7444,11111222 
TABS,ioos:station:wmo:42050:1,2013-02-01T05:00:00Z,28.8425,-94.2433,2.0,35.753,11111222 
TABS,ioos:station:wmo:42050:1,2013-02-01T05:30:00Z,28.8425,-94.2433,2.0,35.7578,11111222 
TABS,ioos:station:wmo:42050:1,2013-02-01T06:00:00Z,28.8425,-94.2433,2.0,35.786,11111222 
TABS,ioos:station:wmo:42050:1,2013-02-01T06:30:00Z,28.8425,-94.2433,2.0,35.7884,11111222 
TABS,ioos:station:wmo:42050:1,2013-02-01T07:00:00Z,28.8425,-94.2433,2.0,35.7834,11111222 
TABS,ioos:station:wmo:42050:1,2013-02-01T07:30:00Z,28.8425,-94.2433,2.0,35.8041,11111222 
TABS,ioos:station:wmo:42050:1,2013-02-01T08:00:00Z,28.8425,-94.2433,2.0,35.8072,11111222 
TABS,ioos:station:wmo:42050:1,2013-02-01T08:30:00Z,28.8425,-94.2433,2.0,35.8188,11111222 
TABS,ioos:station:wmo:42050:1,2013-02-01T09:00:00Z,28.8425,-94.2433,2.0,35.8139,11111222 
TABS,ioos:station:wmo:42050:1,2013-02-01T09:30:00Z,28.8425,-94.2433,2.0,35.8091,11111222 
TABS,ioos:station:wmo:42050:1,2013-02-01T10:00:00Z,28.8425,-94.2433,2.0,35.8058,11111222 
TABS,ioos:station:wmo:42050:1,2013-02-01T10:30:00Z,28.8425,-94.2433,2.0,35.803,11111222 
TABS,ioos:station:wmo:42050:1,2013-02-01T11:00:00Z,28.8425,-94.2433,2.0,35.8153,11111222 
TABS,ioos:station:wmo:42050:1,2013-02-01T11:30:00Z,28.8425,-94.2433,2.0,35.81,11111222 
TABS,ioos:station:wmo:42050:1,2013-02-01T12:00:00Z,28.8425,-94.2433,2.0,35.8105,11111222 
TABS,ioos:station:wmo:42050:1,2013-02-01T12:30:00Z,28.8425,-94.2433,2.0,35.8133,11111222 
TABS,ioos:station:wmo:42050:1,2013-02-01T13:00:00Z,28.8425,-94.2433,2.0,35.8152,11111222 
TABS,ioos:station:wmo:42050:1,2013-02-01T13:30:00Z,28.8425,-94.2433,2.0,35.8166,11111222 
TABS,ioos:station:wmo:42050:1,2013-02-01T14:00:00Z,28.8425,-94.2433,2.0,35.8244,11111222 
TABS,ioos:station:wmo:42050:1,2013-02-01T14:30:00Z,28.8425,-94.2433,2.0,35.8189,11111222 
TABS,ioos:station:wmo:42050:1,2013-02-01T15:00:00Z,28.8425,-94.2433,2.0,35.8211,11111222 
TABS,ioos:station:wmo:42050:1,2013-02-01T15:30:00Z,28.8425,-94.2433,2.0,35.8219,11111222 
TABS,ioos:station:wmo:42050:1,2013-02-01T16:00:00Z,28.8425,-94.2433,2.0,35.8273,11111222 
TABS,ioos:station:wmo:42050:1,2013-02-01T16:30:00Z,28.8425,-94.2433,2.0,35.8306,11111222 
TABS,ioos:station:wmo:42050:1,2013-02-01T17:00:00Z,28.8425,-94.2433,2.0,35.8435,11111222 
TABS,ioos:station:wmo:42050:1,2013-02-01T17:30:00Z,28.8425,-94.2433,2.0,35.8467,11111222 
TABS,ioos:station:wmo:42050:1,2013-02-01T18:00:00Z,28.8425,-94.2433,2.0,35.8414,11111222 
TABS,ioos:station:wmo:42050:1,2013-02-01T18:30:00Z,28.8425,-94.2433,2.0,35.8537,11111222 
TABS,ioos:station:wmo:42050:1,2013-02-01T19:00:00Z,28.8425,-94.2433,2.0,35.8738,11111222 
TABS,ioos:station:wmo:42050:1,2013-02-01T19:30:00Z,28.8425,-94.2433,2.0,35.8644,11111222 
TABS,ioos:station:wmo:42050:1,2013-02-01T20:00:00Z,28.8425,-94.2433,2.0,35.8772,11111222 
TABS,ioos:station:wmo:42050:1,2013-02-01T20:30:00Z,28.8425,-94.2433,2.0,35.9234,11111222 
TABS,ioos:station:wmo:42050:1,2013-02-01T21:00:00Z,28.8425,-94.2433,2.0,35.9261,11111222 
TABS,ioos:station:wmo:42050:1,2013-02-01T21:30:00Z,28.8425,-94.2433,2.0,35.9152,11111222 
TABS,ioos:station:wmo:42050:1,2013-02-01T22:00:00Z,28.8425,-94.2433,2.0,35.9218,11111222 
TABS,ioos:station:wmo:42050:1,2013-02-01T22:30:00Z,28.8425,-94.2433,2.0,35.9032,11111222 
TABS,ioos:station:wmo:42050:1,2013-02-01T23:00:00Z,28.8425,-94.2433,2.0,35.8977,11111222 
TABS,ioos:station:wmo:42050:1,2013-02-01T23:30:00Z,28.8425,-94.2433,2.0,35.8929,11111222 
TABS,ioos:station:wmo:42050:1,2013-02-02T00:00:00Z,28.8425,-94.2433,2.0,35.8795,11111222 
TABS,ioos:station:wmo:42050:1,2013-02-02T00:30:00Z,28.8425,-94.2433,2.0,35.873,11111222 
TABS,ioos:station:wmo:42050:1,2013-02-02T01:00:00Z,28.8425,-94.2433,2.0,35.8648,11111222 
TABS,ioos:station:wmo:42050:1,2013-02-02T01:30:00Z,28.8425,-94.2433,2.0,35.8565,11111222 
TABS,ioos:station:wmo:42050:1,2013-02-02T02:00:00Z,28.8425,-94.2433,2.0,35.855,11111222 
TABS,ioos:station:wmo:42050:1,2013-02-02T02:30:00Z,28.8425,-94.2433,2.0,35.853,11111222 
TABS,ioos:station:wmo:42050:1,2013-02-02T03:00:00Z,28.8425,-94.2433,2.0,35.8472,11111222 
TABS,ioos:station:wmo:42050:1,2013-02-02T03:30:00Z,28.8425,-94.2433,2.0,35.8394,11111222 
TABS,ioos:station:wmo:42050:1,2013-02-02T04:00:00Z,28.8425,-94.2433,2.0,35.848,11111222 
TABS,ioos:station:wmo:42050:1,2013-02-02T04:30:00Z,28.8425,-94.2433,2.0,35.8533,11111222 
TABS,ioos:station:wmo:42050:1,2013-02-02T05:00:00Z,28.8425,-94.2433,2.0,35.8539,11111222 
TABS,ioos:station:wmo:42050:1,2013-02-02T05:30:00Z,28.8425,-94.2433,2.0,35.86,11111222 
TABS,ioos:station:wmo:42050:1,2013-02-02T06:00:00Z,28.8425,-94.2433,2.0,35.8655,11111222 
TABS,ioos:station:wmo:42050:1,2013-02-02T06:30:00Z,28.8425,-94.2433,2.0,35.868,11111222 
TABS,ioos:station:wmo:42050:1,2013-02-02T07:00:00Z,28.8425,-94.2433,2.0,35.8703,11111222 
TABS,ioos:station:wmo:42050:1,2013-02-02T07:30:00Z,28.8425,-94.2433,2.0,35.8643,11111222 
TABS,ioos:station:wmo:42050:1,2013-02-02T08:00:00Z,28.8425,-94.2433,2.0,35.866,11111222 
TABS,ioos:station:wmo:42050:1,2013-02-02T08:30:00Z,28.8425,-94.2433,2.0,35.8721,11111222 
TABS,ioos:station:wmo:42050:1,2013-02-02T09:00:00Z,28.8425,-94.2433,2.0,35.8728,11111222 
TABS,ioos:station:wmo:42050:1,2013-02-02T09:30:00Z,28.8425,-94.2433,2.0,35.8783,11111222 
TABS,ioos:station:wmo:42050:1,2013-02-02T10:00:00Z,28.8425,-94.2433,2.0,35.8792,11111222 
TABS,ioos:station:wmo:42050:1,2013-02-02T10:30:00Z,28.8425,-94.2433,2.0,35.8827,11111222 
TABS,ioos:station:wmo:42050:1,2013-02-02T11:00:00Z,28.8425,-94.2433,2.0,35.8875,11111222 
TABS,ioos:station:wmo:42050:1,2013-02-02T11:30:00Z,28.8425,-94.2433,2.0,35.912,11111222 
TABS,ioos:station:wmo:42050:1,2013-02-02T12:00:00Z,28.8425,-94.2433,2.0,35.9216,11111222 
TABS,ioos:station:wmo:42050:1,2013-02-02T12:30:00Z,28.8425,-94.2433,2.0,35.9357,11111222 
TABS,ioos:station:wmo:42050:1,2013-02-02T13:00:00Z,28.8425,-94.2433,2.0,35.9482,11111222 
TABS,ioos:station:wmo:42050:1,2013-02-02T13:30:00Z,28.8425,-94.2433,2.0,35.9589,11111222 
TABS,ioos:station:wmo:42050:1,2013-02-02T14:00:00Z,28.8425,-94.2433,2.0,35.9628,11111222 
TABS,ioos:station:wmo:42050:1,2013-02-02T17:00:00Z,28.8425,-94.2433,2.0,35.9984,11111222 
TABS,ioos:station:wmo:42050:1,2013-02-02T17:30:00Z,28.8425,-94.2433,2.0,35.9828,11111222 
TABS,ioos:station:wmo:42050:1,2013-02-02T18:00:00Z,28.8425,-94.2433,2.0,35.9914,11111222 
TABS,ioos:station:wmo:42050:1,2013-02-02T18:30:00Z,28.8425,-94.2433,2.0,36.0358,11111222 
TABS,ioos:station:wmo:42050:1,2013-02-02T19:00:00Z,28.8425,-94.2433,2.0,36.0235,11111222 
TABS,ioos:station:wmo:42050:1,2013-02-02T19:30:00Z,28.8425,-94.2433,2.0,36.039,11111222 
TABS,ioos:station:wmo:42050:1,2013-02-02T20:00:00Z,28.8425,-94.2433,2.0,36.0615,11111222 
TABS,ioos:station:wmo:42050:1,2013-02-02T20:30:00Z,28.8425,-94.2433,2.0,35.9709,11111222 
TABS,ioos:station:wmo:42050:1,2013-02-02T21:00:00Z,28.8425,-94.2433,2.0,36.1003,11111222 
TABS,ioos:station:wmo:42050:1,2013-02-02T21:30:00Z,28.8425,-94.2433,2.0,36.0345,11111222 
TABS,ioos:station:wmo:42050:1,2013-02-02T22:00:00Z,28.8425,-94.2433,2.0,36.1191,11111222 
TABS,ioos:station:wmo:42050:1,2013-02-02T22:30:00Z,28.8425,-94.2433,2.0,36.0517,11111222 
TABS,ioos:station:wmo:42050:1,2013-02-02T23:00:00Z,28.8425,-94.2433,2.0,36.0812,11111222 
TABS,ioos:station:wmo:42050:1,2013-02-02T23:30:00Z,28.8425,-94.2433,2.0,36.0786,11111222 
TABS,ioos:station:wmo:42050:1,2013-02-03T00:00:00Z,28.8425,-94.2433,2.0,36.1071,11111222 
TABS,ioos:station:wmo:42050:1,2013-02-03T00:30:00Z,28.8425,-94.2433,2.0,36.0964,11111222 
TABS,ioos:station:wmo:42050:1,2013-02-03T01:00:00Z,28.8425,-94.2433,2.0,36.0906,11111222 
TABS,ioos:station:wmo:42050:1,2013-02-03T01:30:00Z,28.8425,-94.2433,2.0,36.0922,11111222 
TABS,ioos:station:wmo:42050:1,2013-02-03T02:00:00Z,28.8425,-94.2433,2.0,36.0894,11111222 
TABS,ioos:station:wmo:42050:1,2013-02-03T02:30:00Z,28.8425,-94.2433,2.0,36.0919,11111222 
TABS,ioos:station:wmo:42050:1,2013-02-03T03:00:00Z,28.8425,-94.2433,2.0,36.0915,11111222 
TABS,ioos:station:wmo:42050:1,2013-02-03T03:30:00Z,28.8425,-94.2433,2.0,36.0899,11111222 
TABS,ioos:station:wmo:42050:1,2013-02-03T04:00:00Z,28.8425,-94.2433,2.0,36.0865,11111222 
TABS,ioos:station:wmo:42050:1,2013-02-03T04:30:00Z,28.8425,-94.2433,2.0,36.0833,11111222 
TABS,ioos:station:wmo:42050:1,2013-02-03T05:00:00Z,28.8425,-94.2433,2.0,36.0782,11111222 
TABS,ioos:station:wmo:42050:1,2013-02-03T05:30:00Z,28.8425,-94.2433,2.0,36.0711,11111222 
TABS,ioos:station:wmo:42050:1,2013-02-03T06:00:00Z,28.8425,-94.2433,2.0,36.0677,11111222 
TABS,ioos:station:wmo:42050:1,2013-02-03T06:30:00Z,28.8425,-94.2433,2.0,36.054,11111222 
TABS,ioos:station:wmo:42050:1,2013-02-03T07:00:00Z,28.8425,-94.2433,2.0,36.0484,11111222 
TABS,ioos:station:wmo:42050:1,2013-02-03T07:30:00Z,28.8425,-94.2433,2.0,36.0376,11111222 
TABS,ioos:station:wmo:42050:1,2013-02-03T08:00:00Z,28.8425,-94.2433,2.0,36.0304,11111222 
TABS,ioos:station:wmo:42050:1,2013-02-03T08:30:00Z,28.8425,-94.2433,2.0,36.0338,11111222 
TABS,ioos:station:wmo:42050:1,2013-02-03T09:00:00Z,28.8425,-94.2433,2.0,36.0376,11111222 
TABS,ioos:station:wmo:42050:1,2013-02-03T09:30:00Z,28.8425,-94.2433,2.0,36.0298,11111222 
TABS,ioos:station:wmo:42050:1,2013-02-03T10:00:00Z,28.8425,-94.2433,2.0,36.0358,11111222 
TABS,ioos:station:wmo:42050:1,2013-02-03T10:30:00Z,28.8425,-94.2433,2.0,36.0327,11111222 
TABS,ioos:station:wmo:42050:1,2013-02-03T11:00:00Z,28.8425,-94.2433,2.0,36.0438,11111222 
TABS,ioos:station:wmo:42050:1,2013-02-03T11:30:00Z,28.8425,-94.2433,2.0,36.0434,11111222 
TABS,ioos:station:wmo:42050:1,2013-02-03T12:00:00Z,28.8425,-94.2433,2.0,36.0499,11111222 
TABS,ioos:station:wmo:42050:1,2013-02-03T12:30:00Z,28.8425,-94.2433,2.0,36.0362,11111222 
TABS,ioos:station:wmo:42050:1,2013-02-03T13:00:00Z,28.8425,-94.2433,2.0,36.0404,11111222 
TABS,ioos:station:wmo:42050:1,2013-02-03T13:30:00Z,28.8425,-94.2433,2.0,36.0498,11111222 
TABS,ioos:station:wmo:42050:1,2013-02-03T14:00:00Z,28.8425,-94.2433,2.0,36.0425,11111222 
TABS,ioos:station:wmo:42050:1,2013-02-03T14:30:00Z,28.8425,-94.2433,2.0,36.0419,11111222 
TABS,ioos:station:wmo:42050:1,2013-02-03T15:00:00Z,28.8425,-94.2433,2.0,36.0376,11111222 
TABS,ioos:station:wmo:42050:1,2013-02-03T15:30:00Z,28.8425,-94.2433,2.0,36.0355,11111222 
TABS,ioos:station:wmo:42050:1,2013-02-03T16:00:00Z,28.8425,-94.2433,2.0,36.0295,11111222 
TABS,ioos:station:wmo:42050:1,2013-02-03T16:30:00Z,28.8425,-94.2433,2.0,36.0263,11111222 
TABS,ioos:station:wmo:42050:1,2013-02-03T17:00:00Z,28.8425,-94.2433,2.0,36.0214,11111222 
TABS,ioos:station:wmo:42050:1,2013-02-03T17:30:00Z,28.8425,-94.2433,2.0,36.0134,11111222 
TABS,ioos:station:wmo:42050:1,2013-02-03T18:00:00Z,28.8425,-94.2433,2.0,36.0052,11111222 
TABS,ioos:station:wmo:42050:1,2013-02-03T18:30:00Z,28.8425,-94.2433,2.0,36.0062,11111222 
TABS,ioos:station:wmo:42050:1,2013-02-03T19:00:00Z,28.8425,-94.2433,2.0,35.9914,11111222 
TABS,ioos:station:wmo:42050:1,2013-02-03T19:30:00Z,28.8425,-94.2433,2.0,35.985,11111222 
TABS,ioos:station:wmo:42050:1,2013-02-03T20:00:00Z,28.8425,-94.2433,2.0,35.9798,11111222 
TABS,ioos:station:wmo:42050:1,2013-02-03T20:30:00Z,28.8425,-94.2433,2.0,35.9767,11111222 
TABS,ioos:station:wmo:42050:1,2013-02-03T21:00:00Z,28.8425,-94.2433,2.0,35.9725,11111222 
TABS,ioos:station:wmo:42050:1,2013-02-03T21:30:00Z,28.8425,-94.2433,2.0,35.9749,11111222 
TABS,ioos:station:wmo:42050:1,2013-02-03T22:00:00Z,28.8425,-94.2433,2.0,35.9778,11111222 
TABS,ioos:station:wmo:42050:1,2013-02-03T22:30:00Z,28.8425,-94.2433,2.0,35.9878,11111222 
TABS,ioos:station:wmo:42050:1,2013-02-03T23:00:00Z,28.8425,-94.2433,2.0,35.9862,11111222 
TABS,ioos:station:wmo:42050:1,2013-02-03T23:30:00Z,28.8425,-94.2433,2.0,35.9971,11111222 
TABS,ioos:station:wmo:42050:1,2013-02-04T00:00:00Z,28.8425,-94.2433,2.0,36.0045,11111222 
TABS,ioos:station:wmo:42050:1,2013-02-04T00:30:00Z,28.8425,-94.2433,2.0,36.0039,11111222 
TABS,ioos:station:wmo:42050:1,2013-02-04T01:00:00Z,28.8425,-94.2433,2.0,36.0072,11111222 
TABS,ioos:station:wmo:42050:1,2013-02-04T01:30:00Z,28.8425,-94.2433,2.0,36.004,11111222 
TABS,ioos:station:wmo:42050:1,2013-02-04T02:00:00Z,28.8425,-94.2433,2.0,36.0076,11111222 
TABS,ioos:station:wmo:42050:1,2013-02-04T02:30:00Z,28.8425,-94.2433,2.0,36.0031,11111222 
TABS,ioos:station:wmo:42050:1,2013-02-04T03:00:00Z,28.8425,-94.2433,2.0,35.9952,11111222 
TABS,ioos:station:wmo:42050:1,2013-02-04T03:30:00Z,28.8425,-94.2433,2.0,35.9905,11111222 
TABS,ioos:station:wmo:42050:1,2013-02-04T04:00:00Z,28.8425,-94.2433,2.0,35.9813,11111222 
TABS,ioos:station:wmo:42050:1,2013-02-04T04:30:00Z,28.8425,-94.2433,2.0,35.978,11111222 
TABS,ioos:station:wmo:42050:1,2013-02-04T05:00:00Z,28.8425,-94.2433,2.0,35.9645,11111222 
TABS,ioos:station:wmo:42050:1,2013-02-04T05:30:00Z,28.8425,-94.2433,2.0,35.961,11111222 
TABS,ioos:station:wmo:42050:1,2013-02-04T06:00:00Z,28.8425,-94.2433,2.0,35.9538,11111222 
TABS,ioos:station:wmo:42050:1,2013-02-04T06:30:00Z,28.8425,-94.2433,2.0,35.956,11111222 
TABS,ioos:station:wmo:42050:1,2013-02-04T07:00:00Z,28.8425,-94.2433,2.0,35.956,11111222 
TABS,ioos:station:wmo:42050:1,2013-02-04T07:30:00Z,28.8425,-94.2433,2.0,35.9575,11111222 
TABS,ioos:station:wmo:42050:1,2013-02-04T08:00:00Z,28.8425,-94.2433,2.0,35.9616,11111222 
TABS,ioos:station:wmo:42050:1,2013-02-04T08:30:00Z,28.8425,-94.2433,2.0,35.97,11111222 
TABS,ioos:station:wmo:42050:1,2013-02-04T09:00:00Z,28.8425,-94.2433,2.0,35.9768,11111222 
TABS,ioos:station:wmo:42050:1,2013-02-04T09:30:00Z,28.8425,-94.2433,2.0,35.9776,11111222 
TABS,ioos:station:wmo:42050:1,2013-02-04T10:00:00Z,28.8425,-94.2433,2.0,35.9818,11111222 
TABS,ioos:station:wmo:42050:1,2013-02-04T10:30:00Z,28.8425,-94.2433,2.0,35.9826,11111222 
TABS,ioos:station:wmo:42050:1,2013-02-04T11:00:00Z,28.8425,-94.2433,2.0,35.9828,11111222 
TABS,ioos:station:wmo:42050:1,2013-02-04T11:30:00Z,28.8425,-94.2433,2.0,35.9828,11111222 
TABS,ioos:station:wmo:42050:1,2013-02-04T12:00:00Z,28.8425,-94.2433,2.0,35.9832,11111222 
TABS,ioos:station:wmo:42050:1,2013-02-04T12:30:00Z,28.8425,-94.2433,2.0,35.9862,11111222 
TABS,ioos:station:wmo:42050:1,2013-02-04T13:00:00Z,28.8425,-94.2433,2.0,35.9926,11111222 
TABS,ioos:station:wmo:42050:1,2013-02-04T13:30:00Z,28.8425,-94.2433,2.0,35.9957,11111222 
TABS,ioos:station:wmo:42050:1,2013-02-04T14:00:00Z,28.8425,-94.2433,2.0,35.9986,11111222 
TABS,ioos:station:wmo:42050:1,2013-02-04T14:30:00Z,28.8425,-94.2433,2.0,35.9995,11111222 
TABS,ioos:station:wmo:42050:1,2013-02-04T15:00:00Z,28.8425,-94.2433,2.0,36.0022,11111222 
TABS,ioos:station:wmo:42050:1,2013-02-04T15:30:00Z,28.8425,-94.2433,2.0,36.0084,11111222 
TABS,ioos:station:wmo:42050:1,2013-02-04T16:00:00Z,28.8425,-94.2433,2.0,36.0089,11111222 
TABS,ioos:station:wmo:42050:1,2013-02-04T16:30:00Z,28.8425,-94.2433,2.0,36.027,11111222 
TABS,ioos:station:wmo:42050:1,2013-02-04T17:00:00Z,28.8425,-94.2433,2.0,36.0193,11111222 
TABS,ioos:station:wmo:42050:1,2013-02-04T17:30:00Z,28.8425,-94.2433,2.0,36.0296,11111222 
TABS,ioos:station:wmo:42050:1,2013-02-04T18:00:00Z,28.8425,-94.2433,2.0,36.0489,11111222 
TABS,ioos:station:wmo:42050:1,2013-02-04T18:30:00Z,28.8425,-94.2433,2.0,36.1042,11111222 
TABS,ioos:station:wmo:42050:1,2013-02-04T19:00:00Z,28.8425,-94.2433,2.0,36.1248,11111222 
TABS,ioos:station:wmo:42050:1,2013-02-04T19:30:00Z,28.8425,-94.2433,2.0,36.1588,11111222 
TABS,ioos:station:wmo:42050:1,2013-02-04T20:00:00Z,28.8425,-94.2433,2.0,36.1822,11111222 
TABS,ioos:station:wmo:42050:1,2013-02-04T20:30:00Z,28.8425,-94.2433,2.0,36.2134,11111222 
TABS,ioos:station:wmo:42050:1,2013-02-04T21:00:00Z,28.8425,-94.2433,2.0,36.1688,11111222 
TABS,ioos:station:wmo:42050:1,2013-02-04T21:30:00Z,28.8425,-94.2433,2.0,36.2003,11111222 
TABS,ioos:station:wmo:42050:1,2013-02-04T22:00:00Z,28.8425,-94.2433,2.0,36.1282,11111222 
TABS,ioos:station:wmo:42050:1,2013-02-04T22:30:00Z,28.8425,-94.2433,2.0,36.2209,11111222 
TABS,ioos:station:wmo:42050:1,2013-02-04T23:00:00Z,28.8425,-94.2433,2.0,36.2214,11111222 
TABS,ioos:station:wmo:42050:1,2013-02-04T23:30:00Z,28.8425,-94.2433,2.0,36.2152,11111222 
TABS,ioos:station:wmo:42050:1,2013-02-05T00:00:00Z,28.8425,-94.2433,2.0,36.1955,11111222 
TABS,ioos:station:wmo:42050:1,2013-02-05T00:30:00Z,28.8425,-94.2433,2.0,36.2202,11111222 
TABS,ioos:station:wmo:42050:1,2013-02-05T01:00:00Z,28.8425,-94.2433,2.0,36.2091,11111222 
TABS,ioos:station:wmo:42050:1,2013-02-05T01:30:00Z,28.8425,-94.2433,2.0,36.2072,11111222 
TABS,ioos:station:wmo:42050:1,2013-02-05T02:00:00Z,28.8425,-94.2433,2.0,36.2074,11111222 
TABS,ioos:station:wmo:42050:1,2013-02-05T02:30:00Z,28.8425,-94.2433,2.0,36.2021,11111222 
TABS,ioos:station:wmo:42050:1,2013-02-05T03:00:00Z,28.8425,-94.2433,2.0,36.1957,11111222 
TABS,ioos:station:wmo:42050:1,2013-02-05T03:30:00Z,28.8425,-94.2433,2.0,36.2009,11111222 
TABS,ioos:station:wmo:42050:1,2013-02-05T04:00:00Z,28.8425,-94.2433,2.0,36.1967,11111222 
TABS,ioos:station:wmo:42050:1,2013-02-05T04:30:00Z,28.8425,-94.2433,2.0,36.1868,11111222 
TABS,ioos:station:wmo:42050:1,2013-02-05T05:00:00Z,28.8425,-94.2433,2.0,36.1853,11111222 
TABS,ioos:station:wmo:42050:1,2013-02-05T05:30:00Z,28.8425,-94.2433,2.0,36.1733,11111222 
TABS,ioos:station:wmo:42050:1,2013-02-05T06:00:00Z,28.8425,-94.2433,2.0,36.1482,11111222 
TABS,ioos:station:wmo:42050:1,2013-02-05T06:30:00Z,28.8425,-94.2433,2.0,36.1329,11111222 
TABS,ioos:station:wmo:42050:1,2013-02-05T07:00:00Z,28.8425,-94.2433,2.0,36.1062,11111222 
TABS,ioos:station:wmo:42050:1,2013-02-05T07:30:00Z,28.8425,-94.2433,2.0,36.0803,11111222 
TABS,ioos:station:wmo:42050:1,2013-02-05T08:00:00Z,28.8425,-94.2433,2.0,36.0296,11111222 
TABS,ioos:station:wmo:42050:1,2013-02-05T08:30:00Z,28.8425,-94.2433,2.0,36.0075,11111222 
TABS,ioos:station:wmo:42050:1,2013-02-05T09:00:00Z,28.8425,-94.2433,2.0,35.9783,11111222 
TABS,ioos:station:wmo:42050:1,2013-02-05T09:30:00Z,28.8425,-94.2433,2.0,35.9193,11111222 
TABS,ioos:station:wmo:42050:1,2013-02-05T10:00:00Z,28.8425,-94.2433,2.0,35.9117,11111222 
TABS,ioos:station:wmo:42050:1,2013-02-05T10:30:00Z,28.8425,-94.2433,2.0,35.8969,11111222 
TABS,ioos:station:wmo:42050:1,2013-02-05T11:00:00Z,28.8425,-94.2433,2.0,35.9019,11111222 
TABS,ioos:station:wmo:42050:1,2013-02-05T11:30:00Z,28.8425,-94.2433,2.0,35.8821,11111222 
TABS,ioos:station:wmo:42050:1,2013-02-05T12:00:00Z,28.8425,-94.2433,2.0,35.875,11111222 
TABS,ioos:station:wmo:42050:1,2013-02-05T12:30:00Z,28.8425,-94.2433,2.0,35.8681,11111222 
TABS,ioos:station:wmo:42050:1,2013-02-05T13:00:00Z,28.8425,-94.2433,2.0,35.8663,11111222 
TABS,ioos:station:wmo:42050:1,2013-02-05T13:30:00Z,28.8425,-94.2433,2.0,35.8676,11111222 
TABS,ioos:station:wmo:42050:1,2013-02-05T14:00:00Z,28.8425,-94.2433,2.0,35.8715,11111222 
TABS,ioos:station:wmo:42050:1,2013-02-05T14:30:00Z,28.8425,-94.2433,2.0,35.8801,11111222 
TABS,ioos:station:wmo:42050:1,2013-02-05T15:00:00Z,28.8425,-94.2433,2.0,35.8898,11111222 
TABS,ioos:station:wmo:42050:1,2013-02-05T15:30:00Z,28.8425,-94.2433,2.0,35.9,11111222 
TABS,ioos:station:wmo:42050:1,2013-02-05T16:00:00Z,28.8425,-94.2433,2.0,35.918,11111222 
TABS,ioos:station:wmo:42050:1,2013-02-05T16:30:00Z,28.8425,-94.2433,2.0,35.919,11111222 
TABS,ioos:station:wmo:42050:1,2013-02-05T17:00:00Z,28.8425,-94.2433,2.0,35.9196,11111222 
TABS,ioos:station:wmo:42050:1,2013-02-05T17:30:00Z,28.8425,-94.2433,2.0,35.9266,11111222 
TABS,ioos:station:wmo:42050:1,2013-02-05T18:00:00Z,28.8425,-94.2433,2.0,35.9332,11111222 
TABS,ioos:station:wmo:42050:1,2013-02-05T18:30:00Z,28.8425,-94.2433,2.0,35.9304,11111222 
TABS,ioos:station:wmo:42050:1,2013-02-05T19:00:00Z,28.8425,-94.2433,2.0,35.9367,11111222 
TABS,ioos:station:wmo:42050:1,2013-02-05T19:30:00Z,28.8425,-94.2433,2.0,35.9275,11111222 
TABS,ioos:station:wmo:42050:1,2013-02-05T20:00:00Z,28.8425,-94.2433,2.0,35.9278,11111222 
TABS,ioos:station:wmo:42050:1,2013-02-05T20:30:00Z,28.8425,-94.2433,2.0,36.043,11111222 
TABS,ioos:station:wmo:42050:1,2013-02-05T21:00:00Z,28.8425,-94.2433,2.0,35.9192,11111222 
TABS,ioos:station:wmo:42050:1,2013-02-05T21:30:00Z,28.8425,-94.2433,2.0,35.8788,11111222 
TABS,ioos:station:wmo:42050:1,2013-02-05T22:00:00Z,28.8425,-94.2433,2.0,35.9051,11111222 
TABS,ioos:station:wmo:42050:1,2013-02-05T22:30:00Z,28.8425,-94.2433,2.0,35.8903,11111222 
TABS,ioos:station:wmo:42050:1,2013-02-05T23:00:00Z,28.8425,-94.2433,2.0,35.8828,11111222 
TABS,ioos:station:wmo:42050:1,2013-02-05T23:30:00Z,28.8425,-94.2433,2.0,35.8826,11111222 
TABS,ioos:station:wmo:42050:1,2013-02-06T00:00:00Z,28.8425,-94.2433,2.0,35.8773,11111222 
TABS,ioos:station:wmo:42050:1,2013-02-06T00:30:00Z,28.8425,-94.2433,2.0,35.8879,11111222 
TABS,ioos:station:wmo:42050:1,2013-02-06T01:00:00Z,28.8425,-94.2433,2.0,35.8607,11111222 
TABS,ioos:station:wmo:42050:1,2013-02-06T01:30:00Z,28.8425,-94.2433,2.0,35.8929,11111222 
TABS,ioos:station:wmo:42050:1,2013-02-06T02:00:00Z,28.8425,-94.2433,2.0,35.9037,11111222 
TABS,ioos:station:wmo:42050:1,2013-02-06T02:30:00Z,28.8425,-94.2433,2.0,35.9082,11111222 
TABS,ioos:station:wmo:42050:1,2013-02-06T03:00:00Z,28.8425,-94.2433,2.0,35.9192,11111222 
TABS,ioos:station:wmo:42050:1,2013-02-06T03:30:00Z,28.8425,-94.2433,2.0,35.9259,11111222 
TABS,ioos:station:wmo:42050:1,2013-02-06T04:00:00Z,28.8425,-94.2433,2.0,35.9357,11111222 
TABS,ioos:station:wmo:42050:1,2013-02-06T04:30:00Z,28.8425,-94.2433,2.0,35.9334,11111222 
TABS,ioos:station:wmo:42050:1,2013-02-06T05:00:00Z,28.8425,-94.2433,2.0,35.9275,11111222 
TABS,ioos:station:wmo:42050:1,2013-02-06T05:30:00Z,28.8425,-94.2433,2.0,35.9293,11111222 
TABS,ioos:station:wmo:42050:1,2013-02-06T06:00:00Z,28.8425,-94.2433,2.0,35.913,11111222 
TABS,ioos:station:wmo:42050:1,2013-02-06T06:30:00Z,28.8425,-94.2433,2.0,35.8801,11111222 
TABS,ioos:station:wmo:42050:1,2013-02-06T07:00:00Z,28.8425,-94.2433,2.0,35.8837,11111222 
TABS,ioos:station:wmo:42050:1,2013-02-06T07:30:00Z,28.8425,-94.2433,2.0,35.8758,11111222 
TABS,ioos:station:wmo:42050:1,2013-02-06T08:00:00Z,28.8425,-94.2433,2.0,35.8855,11111222 
TABS,ioos:station:wmo:42050:1,2013-02-06T08:30:00Z,28.8425,-94.2433,2.0,35.8807,11111222 
TABS,ioos:station:wmo:42050:1,2013-02-06T09:00:00Z,28.8425,-94.2433,2.0,35.8608,11111222 
TABS,ioos:station:wmo:42050:1,2013-02-06T09:30:00Z,28.8425,-94.2433,2.0,35.8514,11111222 
TABS,ioos:station:wmo:42050:1,2013-02-06T10:00:00Z,28.8425,-94.2433,2.0,35.8498,11111222 
TABS,ioos:station:wmo:42050:1,2013-02-06T10:30:00Z,28.8425,-94.2433,2.0,35.8383,11111222 
TABS,ioos:station:wmo:42050:1,2013-02-06T11:00:00Z,28.8425,-94.2433,2.0,35.8401,11111222 
TABS,ioos:station:wmo:42050:1,2013-02-06T11:30:00Z,28.8425,-94.2433,2.0,35.8442,11111222 
TABS,ioos:station:wmo:42050:1,2013-02-06T12:00:00Z,28.8425,-94.2433,2.0,35.8474,11111222 
TABS,ioos:station:wmo:42050:1,2013-02-06T12:30:00Z,28.8425,-94.2433,2.0,35.8589,11111222 
TABS,ioos:station:wmo:42050:1,2013-02-06T13:00:00Z,28.8425,-94.2433,2.0,35.8757,11111222 
TABS,ioos:station:wmo:42050:1,2013-02-06T13:30:00Z,28.8425,-94.2433,2.0,35.9212,11111222 
TABS,ioos:station:wmo:42050:1,2013-02-06T14:00:00Z,28.8425,-94.2433,2.0,35.9409,11111222 
TABS,ioos:station:wmo:42050:1,2013-02-06T14:30:00Z,28.8425,-94.2433,2.0,35.9629,11111222 
TABS,ioos:station:wmo:42050:1,2013-02-06T15:00:00Z,28.8425,-94.2433,2.0,35.9986,11111222 